Flag for Germany Weather past 2 weeks in Bensheim, Hesse, Germany

Now
48 °F

Clear.


Feels Like: 48 °F
Forecast: 40 / 55 °F
Wind: 2 mph from North

Location: Baden Wurttemberg - Neuostheim


UV Index: 3 (Moderate)

Visibility: 10 mi


Pressure: 29.98 "Hg

Humidity: 50%

Dew point: 30 °F

Location of BensheimLocation

Historic Weather in Bensheim

°F

Bensheim temperature yesterday

Maximum temperature yesterday: 57 °F (at 4:20 PM)
Minimum temperature yesterday: 36 °F (at 5:50 AM)
Average temperature yesterday: 49 °F

Past Weeks' High & Low Weather Summary

 TemperatureHumidityPressure
High75 °F (Apr 4, 4:20 PM)100% (Apr 5, 7:20 AM)30.42 "Hg (Apr 5, 7:20 AM)
Low34 °F (Apr 17, 6:50 AM)23% (Apr 17, 6:50 PM)29.62 "Hg (Apr 3, 5:50 PM)
Average58 °F54%30.06 "Hg
* Reported Apr 3 5:50 AM — Apr 17 10:20 PM, Bensheim, Weather by CustomWeather, © 2014

Note: Actual official high and low records may vary slightly from our data, if they occured in-between our weather recording intervals... More about our weather records

Advertising

Historic Weather Conditions — Data for Previous 24 hours

 ConditionsComfort  
Time TempWeatherWind HumidityBarometerVisibility
10:20 PM
Apr 17
48 °FClear.No wind50%29.98 "Hg10 mi
9:50 PM48 °FClear.2 mph54%29.98 "Hg10 mi
9:20 PM52 °FSunny.2 mph44%29.98 "Hg10 mi
8:50 PM55 °FSunny.3 mph36%29.98 "Hg10 mi
8:20 PM59 °FSunny.3 mph27%30.01 "Hg10 mi
7:50 PM61 °FRefreshingly cool.5 mph25%30.01 "HgN/A
6:50 PM61 °FRefreshingly cool.7 mph23%30.04 "HgN/A
6:20 PM63 °FSunny.5 mph24%30.04 "Hg10 mi
5:50 PM63 °FSunny.3 mph24%30.04 "Hg10 mi
5:20 PM63 °FSunny.3 mph25%30.07 "Hg10 mi
4:50 PM63 °FPassing clouds.7 mph25%30.07 "HgN/A
4:20 PM63 °FSunny.5 mph25%30.09 "Hg10 mi
3:50 PM61 °FPassing clouds.6 mph27%30.09 "HgN/A
3:20 PM59 °FPassing clouds.7 mph27%30.12 "HgN/A
2:50 PM61 °FSunny.3 mph27%30.15 "Hg10 mi
2:20 PM59 °FPassing clouds.7 mph27%30.15 "HgN/A
1:50 PM57 °FSunny.8 mph27%30.18 "Hg10 mi
1:20 PM57 °FPassing clouds.8 mph31%30.18 "HgN/A
12:50 PM55 °FPassing clouds.8 mph31%30.21 "HgN/A
12:20 PM55 °FPassing clouds.8 mph31%30.24 "HgN/A
11:50 AM55 °FPassing clouds.8 mph31%30.24 "HgN/A
11:20 AM54 °FPassing clouds.9 mph38%30.27 "HgN/A
10:50 AM54 °FPassing clouds.9 mph41%30.27 "HgN/A
10:20 AM52 °FPassing clouds.9 mph44%30.27 "HgN/A
9:50 AM50 °FPassing clouds.8 mph43%30.27 "HgN/A
9:20 AM50 °FSunny.3 mph50%30.30 "Hg10 mi
8:50 AM46 °FSunny.1 mph53%30.27 "Hg10 mi
8:20 AM45 °FSunny.1 mph57%30.30 "Hg10 mi
7:50 AM41 °FSunny.No wind70%30.30 "Hg10 mi
7:20 AM39 °FChilly.1 mph75%30.30 "HgN/A
6:50 AM34 °FClear.1 mph81%30.30 "Hg10 mi
6:20 AM36 °FClear.2 mph81%30.30 "Hg10 mi
5:50 AM36 °FClear.2 mph75%30.30 "Hg10 mi
Weather by CustomWeather, © 2014

See weather overview